TimePDT,TemperatureF,Dew PointF,Humidity,Sea Level PressureIn,VisibilityMPH,Wind Direction,Wind SpeedMPH,Gust SpeedMPH,PrecipitationIn,Events,Conditions,WindDirDegrees,DateUTC
12:55 AM,43.0,28.0,56,30.32,10.0,Calm,Calm,-,N/A,,Clear,0,2013-04-18 07:55:00
1:55 AM,41.0,28.0,60,30.31,10.0,WNW,8.1,-,N/A,,Clear,290,2013-04-18 08:55:00
2:55 AM,43.0,28.0,56,30.31,10.0,NW,10.4,-,N/A,,Clear,310,2013-04-18 09:55:00
3:55 AM,43.0,28.9,58,30.30,10.0,NW,10.4,-,N/A,,Clear,310,2013-04-18 10:55:00
4:55 AM,43.0,28.9,58,30.32,10.0,WNW,5.8,-,N/A,,Mostly Cloudy,300,2013-04-18 11:55:00
5:55 AM,44.1,28.9,55,30.32,10.0,NNW,4.6,-,N/A,,Overcast,340,2013-04-18 12:55:00
6:55 AM,45.0,28.9,53,30.31,10.0,West,8.1,-,N/A,,Mostly Cloudy,260,2013-04-18 13:55:00
7:55 AM,50.0,28.9,44,30.32,10.0,WNW,12.7,-,N/A,,Scattered Clouds,290,2013-04-18 14:55:00
8:55 AM,50.0,28.9,44,30.32,10.0,WNW,13.8,-,N/A,,Overcast,290,2013-04-18 15:55:00
9:55 AM,53.1,30.0,41,30.32,10.0,WNW,13.8,-,N/A,,Mostly Cloudy,290,2013-04-18 16:55:00
10:55 AM,55.0,30.9,40,30.31,10.0,WNW,9.2,-,N/A,,Mostly Cloudy,300,2013-04-18 17:55:00
11:55 AM,57.9,30.9,36,30.29,10.0,NW,6.9,-,N/A,,Scattered Clouds,310,2013-04-18 18:55:00
12:55 PM,59.0,32.0,36,30.27,10.0,West,5.8,-,N/A,,Mostly Cloudy,260,2013-04-18 19:55:00
1:55 PM,59.0,32.0,36,30.25,10.0,Calm,Calm,-,N/A,,Overcast,0,2013-04-18 20:55:00
2:55 PM,62.1,33.1,34,30.23,10.0,Calm,Calm,-,N/A,,Mostly Cloudy,0,2013-04-18 21:55:00
3:55 PM,62.1,34.0,35,30.21,10.0,Calm,Calm,-,N/A,,Partly Cloudy,0,2013-04-18 22:55:00
4:55 PM,62.1,35.1,37,30.19,10.0,South,3.5,-,N/A,,Overcast,180,2013-04-18 23:55:00
5:55 PM,61.0,35.1,38,30.19,10.0,NW,13.8,-,N/A,,Scattered Clouds,310,2013-04-19 00:55:00
6:55 PM,59.0,35.1,41,30.18,10.0,NW,13.8,-,N/A,,Scattered Clouds,310,2013-04-19 01:55:00
7:55 PM,55.9,35.1,45,30.17,10.0,NW,15.0,-,N/A,,Overcast,310,2013-04-19 02:55:00
8:55 PM,54.0,34.0,47,30.17,10.0,NW,15.0,-,N/A,,Clear,310,2013-04-19 03:55:00
9:55 PM,52.0,34.0,50,30.17,10.0,NW,15.0,-,N/A,,Clear,320,2013-04-19 04:55:00
10:55 PM,51.1,34.0,52,30.15,10.0,NNW,13.8,-,N/A,,Overcast,330,2013-04-19 05:55:00
11:55 PM,50.0,34.0,54,30.12,10.0,WNW,11.5,-,N/A,,Partly Cloudy,300,2013-04-19 06:55:00